EHI
0 0 0 0 0 0 0 0 0 0 0 0 0 0 0 0 0 0 0 0 0 0 1 3 6 6 2 1 2 4 6 8 11 13 12 10 9 6 2 0 0 0 0 0 1 0 0 0 0
0 0 0 0 0 0 0 0 0 0 0 0 0 0 0 0 0 0 0 0 0 0 0 2 5 5 3 3 4 5 7 7 9 11 11 9 7 4 1 0 0 0 0 0 1 1 0 0 0
0 0 0 0 0 0 0 0 0 0 0 0 0 0 0 0 0 0 0 0 0 0 0 2 4 5 5 5 7 9 9 8 8 9 8 7 6 3 1 0 0 0 0 0 1 1 1 0 0
0 0 0 0 0 0 0 0 0 0 0 0 0 0 0 0 0 0 0 0 0 0 0 3 6 7 7 7 8 10 9 8 8 8 7 7 6 3 2 1 0 0 0 0 0 1 2 1 1
0 0 0 0 0 0 0 0 0 0 0 0 0 0 0 0 0 0 0 0 0 0 0 2 5 6 7 8 8 7 7 7 7 7 7 7 6 4 3 2 1 0 0 0 0 1 2 2 2
0 0 0 0 0 0 0 0 0 0 0 0 0 0 0 0 0 0 0 0 0 0 0 0 2 4 5 6 5 4 4 4 5 5 5 5 4 3 3 2 1 0 0 0 0 0 1 2 2
0 0 0 0 0 0 0 0 0 0 0 0 0 0 0 0 0 0 0 0 0 0 0 0 1 2 3 3 3 2 2 2 2 2 2 2 2 2 1 1 0 0 0 0 0 0 0 1 1
0 0 0 0 0 0 0 0 0 0 0 0 0 0 0 0 0 0 0 0 0 0 0 0 0 1 1 1 1 1 1 1 1 0 0 0 1 2 1 0 0 0 0 0 0 0 0 0 0
0 0 0 0 0 0 0 0 0 0 0 0 0 0 0 0 0 0 0 0 0 0 0 0 0 0 0 0 0 0 0 0 0 0 0 0 1 1 1 0 0 0 0 0 0 0 0 0 0
0 0 0 0 0 0 0 0 0 0 0 0 0 0 0 0 1 1 1 0 0 0 0 0 0 0 0 0 0 0 0 0 0 0 0 0 0 0 0 0 0 0 0 0 0 0 0 0 0
0 0 0 0 0 0 0 0 0 0 0 0 0 0 0 0 1 2 2 1 0 0 0 0 0 0 0 0 0 0 0 0 0 0 0 0 0 0 0 0 0 0 0 0 0 0 0 0 0
0 0 0 0 0 0 0 0 0 0 0 0 0 0 0 0 1 2 2 1 0 0 0 0 0 0 0 0 0 0 0 0 0 0 0 0 0 0 0 0 0 0 0 0 0 0 0 0 0
0 0 0 0 0 0 0 0 0 0 0 0 0 0 0 0 0 1 2 1 0 0 0 0 0 0 0 0 0 0 0 0 0 0 0 0 0 0 0 0 0 1 1 1 0 0 0 0 0
0 0 0 0 0 0 0 0 0 0 0 0 0 0 0 0 0 1 1 1 0 0 0 0 0 0 0 0 0 0 0 0 0 0 0 0 0 0 0 0 0 1 2 1 0 0 0 0 0
0 0 0 0 0 0 0 0 0 0 0 0 0 0 0 0 0 0 1 1 0 0 0 0 0 0 0 0 0 0 0 0 0 0 0 0 0 0 0 0 0 1 2 1 0 0 0 0 0
0 0 0 0 0 0 0 0 0 0 0 0 0 0 0 0 0 0 0 0 0 0 0 0 0 0 0 0 0 0 0 0 0 0 0 0 0 0 0 0 0 1 2 2 1 0 0 0 0
0 0 0 0 0 0 0 0 0 0 0 0 0 0 0 0 0 0 0 0 0 0 0 0 0 0 0 0 0 0 0 0 0 0 0 0 0 0 0 0 0 0 1 2 1 1 0 0 0
0 0 0 0 0 0 0 0 0 0 0 0 0 0 0 0 0 0 0 0 0 0 0 0 0 0 0 0 0 0 0 0 0 0 0 0 0 0 0 0 0 0 0 1 2 2 1 0 0
0 0 0 0 0 0 0 0 0 0 0 0 0 0 0 0 0 0 0 0 0 0 0 0 0 0 0 0 0 0 0 0 0 0 0 0 0 0 0 0 0 0 0 0 1 1 1 0 0
0 0 0 0 0 0 0 0 0 0 0 0 0 0 0 0 0 0 0 0 0 0 0 0 0 0 0 0 0 0 0 0 0 0 0 0 0 0 0 0 0 0 0 0 0 0 0 0 0
0 0 0 0 0 0 0 0 0 0 0 0 0 0 0 0 0 0 0 0 0 0 0 0 0 0 0 0 0 0 0 0 0 0 0 0 0 0 0 0 0 0 0 0 0 0 0 0 0
0 0 0 0 0 0 0 0 0 0 0 0 0 0 0 0 0 0 0 0 0 0 0 0 0 0 0 0 0 0 0 0 0 0 0 0 0 0 0 0 0 0 0 0 0 0 0 0 0
0 0 0 0 0 0 0 0 0 0 0 0 0 0 0 0 0 0 0 0 0 0 0 0 0 0 0 0 0 0 0 0 0 0 0 0 0 0 0 0 0 0 0 0 0 0 0 0 0
0 0 0 0 0 0 0 0 0 0 0 0 0 0 0 0 0 0 0 0 0 0 0 0 0 0 0 0 0 0 0 0 0 0 0 0 0 0 0 0 0 0 0 0 0 0 0 0 0
0 0 0 0 0 0 0 0 0 0 0 0 0 0 0 0 0 0 0 0 0 0 0 0 0 0 0 0 0 0 0 0 0 0 0 0 0 0 0 0 0 0 0 0 0 0 0 0 0
0 0 0 0 0 0 0 0 0 0 0 0 0 0 0 0 0 0 0 0 0 0 0 0 0 0 0 0 0 0 0 0 0 0 0 0 0 0 0 0 0 0 0 0 0 0 0 0 0
0 0 0 0 0 0 0 0 0 0 0 0 0 0 0 0 0 0 0 0 0 0 0 0 0 0 0 0 0 0 0 0 0 0 0 0 0 0 0 0 0 0 0 0 0 0 0 0 0
0 0 0 0 0 0 0 0 0 0 0 0 0 0 0 0 0 0 0 0 0 0 0 0 0 0 0 0 0 0 0 0 0 0 0 0 0 0 0 0 0 0 0 0 0 0 0 0 0
0 0 0 0 0 0 0 0 0 0 0 0 0 0 0 0 0 0 0 0 0 0 0 0 0 0 0 0 0 0 0 0 0 0 0 0 0 0 0 0 0 0 0 0 0 0 0 0 0
0 0 0 0 0 0 0 0 0 0 0 0 0 0 0 0 0 0 0 0 0 0 0 0 0 0 0 0 0 0 0 0 0 0 0 0 0 0 0 0 0 0 0 0 0 0 0 0 0
Wind_Speed
4 2 2 4 6 4 3 4 2 2 1 1 2 4 7 5 4 4 2 1 1 1 2 3 8 9 9 10 10 10 11 11 11 10 9 8 8 8 7 7 6 5 4 3 2 1 2 2 3
1 1 4 5 5 1 5 3 3 2 3 3 3 4 5 3 1 4 1 0 2 2 2 3 8 9 10 10 10 10 10 11 11 11 10 9 8 8 8 7 6 6 5 5 3 2 1 1 2
1 2 5 5 4 6 4 3 4 1 2 3 3 4 3 3 2 2 1 2 3 3 3 4 9 9 10 10 10 10 10 10 10 11 10 10 10 9 8 8 7 6 5 5 4 3 2 1 1
2 4 5 4 4 5 3 1 3 3 2 3 4 4 2 1 1 2 3 4 5 4 3 4 9 9 10 10 10 10 10 10 10 10 10 10 10 10 9 8 8 7 6 5 5 3 3 1 0
4 4 4 1 4 3 2 1 2 2 2 2 4 4 1 2 2 4 5 4 5 4 4 4 9 9 10 10 11 10 11 10 10 10 10 10 10 10 10 9 8 7 7 6 5 4 3 3 1
5 5 4 4 4 2 1 1 2 2 3 3 4 5 2 1 3 4 4 4 4 4 4 5 9 10 10 10 11 11 11 11 11 11 11 11 11 11 10 10 9 8 7 7 6 4 4 3 3
5 4 4 4 3 3 2 1 4 4 3 3 5 6 1 1 2 4 4 4 4 4 4 4 4 6 9 10 10 10 11 11 11 11 11 11 11 11 11 11 10 9 9 8 6 5 4 4 4
4 5 3 3 4 4 2 2 2 3 3 2 4 7 5 4 4 4 4 4 4 4 4 3 4 4 4 5 9 10 10 10 11 11 11 11 10 10 11 11 11 11 10 9 8 7 5 5 5
4 4 4 6 6 4 2 2 1 2 4 1 1 3 4 7 7 5 4 2 2 2 2 2 3 3 3 3 6 7 8 8 8 8 10 8 4 4 6 9 11 12 11 10 10 9 7 6 5
4 4 6 3 3 3 2 2 2 2 2 1 1 1 4 7 7 6 5 4 2 1 0 1 2 2 2 3 3 3 3 3 4 3 4 3 3 4 6 9 11 12 11 10 10 10 8 5 2
3 5 3 1 1 2 2 1 1 4 4 6 6 6 6 6 6 6 5 5 4 3 1 0 1 1 2 2 2 2 2 2 3 3 3 2 2 3 3 3 5 6 7 5 6 6 4 3 2
2 2 2 1 1 1 2 2 1 5 5 3 6 8 7 8 8 8 7 5 4 3 2 1 0 1 1 1 1 1 1 1 2 2 3 2 2 2 2 2 3 2 3 4 3 3 4 4 3
2 1 1 0 0 1 1 2 3 5 4 2 4 6 7 8 7 6 5 5 4 4 3 2 1 1 0 1 1 1 1 1 1 2 2 2 1 2 2 2 2 2 2 3 3 3 4 4 4
2 1 1 1 1 1 2 3 3 7 3 4 6 7 7 7 7 5 5 5 5 4 4 2 2 2 1 0 1 1 1 1 1 1 2 2 1 1 2 2 2 2 2 3 3 4 3 4 4
2 1 2 2 2 2 1 6 8 6 4 5 6 6 6 6 6 7 7 6 6 5 4 3 3 2 1 1 1 1 1 1 1 2 2 2 2 2 2 2 2 3 3 3 3 4 3 3 4
2 1 2 3 3 2 3 8 5 3 6 7 6 6 6 6 6 7 7 6 5 4 4 4 2 2 2 2 2 1 1 1 1 2 2 3 3 2 2 2 3 3 3 2 3 3 3 3 4
1 2 4 3 2 2 4 8 5 2 5 7 7 7 6 6 6 6 6 6 6 5 4 3 2 2 2 2 1 1 1 2 2 2 2 3 3 3 2 2 3 3 2 2 3 3 3 4 5
6 5 4 4 2 1 4 9 9 3 5 7 7 7 7 7 8 6 6 5 5 4 3 3 2 2 1 1 1 1 2 2 2 2 3 3 3 3 3 2 3 3 2 3 3 4 3 3 4
4 4 3 3 1 2 7 11 13 7 6 8 8 8 8 9 6 5 5 4 3 3 3 3 2 2 1 0 0 1 2 2 2 2 3 3 4 3 3 3 3 3 3 4 4 4 4 4 3
2 2 3 3 1 1 5 11 11 8 8 9 9 10 9 7 4 5 5 4 4 4 4 3 3 3 2 2 2 2 2 2 3 3 3 4 4 4 4 3 4 3 3 4 4 4 3 4 2
3 5 4 2 3 2 5 9 5 4 3 4 6 7 7 9 8 6 5 5 4 4 5 4 4 3 3 2 1 1 1 2 2 3 3 4 4 5 5 5 5 4 4 4 5 5 5 5 3
5 3 3 2 1 4 2 6 7 3 4 4 6 6 7 7 6 6 6 5 6 6 4 4 4 3 3 2 2 2 2 3 4 4 4 5 5 5 5 6 6 5 5 5 6 5 5 5 5
4 2 3 1 2 3 1 3 11 2 4 6 6 7 7 6 6 6 6 7 5 4 3 3 3 3 2 2 3 3 3 4 4 4 5 6 5 5 6 6 5 6 5 6 6 6 6 5 6
6 5 5 4 3 4 5 5 10 5 6 4 4 4 5 5 5 5 4 3 3 2 2 2 2 3 3 3 3 4 4 5 5 6 6 5 4 5 6 6 6 6 6 7 7 7 7 7 7
4 6 3 3 2 7 3 5 12 6 4 4 4 4 4 5 4 4 4 3 3 3 3 2 3 3 3 3 4 4 5 5 6 6 6 6 5 5 6 6 6 6 7 7 7 7 8 8 8
6 7 8 7 6 4 2 8 10 4 3 4 3 3 3 4 4 5 5 5 4 4 4 3 4 4 4 4 4 4 5 4 5 6 6 6 6 7 7 7 7 8 8 8 7 6 8 7 8
7 4 4 6 1 3 6 7 11 3 2 1 1 1 2 3 4 4 4 4 4 4 4 4 4 5 4 4 4 5 5 5 6 7 6 6 7 7 8 7 8 8 8 8 8 7 8 8 8
4 8 5 5 5 5 6 6 6 4 2 1 1 2 3 3 3 3 3 4 3 3 3 3 4 5 5 4 4 5 5 6 6 6 7 8 8 8 8 8 8 8 8 8 8 7 8 9 9
5 4 4 4 4 5 4 8 6 5 3 3 4 4 4 4 4 3 3 3 2 2 2 3 3 4 4 4 5 5 6 6 6 7 8 8 8 9 9 9 9 8 8 8 8 9 9 10 10
4 6 7 6 5 4 3 10 3 3 4 4 4 3 3 3 3 2 2 2 2 2 2 3 3 4 4 4 4 6 6 6 7 8 9 8 9 9 9 9 9 9 9 8 9 10 10 10 11
Wind_Direction
356 31 75 60 59 57 230 236 209 177 159 86 83 102 125 129 147 160 185 66 93 77 4 35 54 52 51 48 44 43 42 42 42 42 44 47 48 47 47 48 51 50 51 54 74 111 148 152 150
345 88 59 64 96 164 251 228 200 193 154 125 69 79 86 86 65 109 141 38 88 75 36 46 59 53 49 48 46 44 43 42 39 38 38 40 42 42 42 40 39 38 39 38 37 43 88 168 174
117 61 86 85 141 191 219 204 188 129 106 113 83 62 99 126 138 149 174 126 87 60 35 48 61 55 50 48 46 44 43 41 38 37 35 33 34 33 35 34 32 28 28 29 29 28 36 46 176
89 54 60 93 209 222 218 193 162 129 82 69 106 84 67 47 166 158 121 110 91 59 36 51 60 55 51 49 46 43 41 39 37 36 32 29 29 27 26 26 26 21 17 19 20 14 20 7 339
61 81 84 156 230 242 238 219 162 132 113 81 110 113 90 355 65 106 112 107 99 70 41 48 59 55 51 48 46 43 42 39 36 33 31 29 27 24 21 19 20 16 11 6 4 2 3 355 325
62 75 116 210 232 246 246 222 138 123 122 115 117 121 161 8 101 120 114 102 95 84 55 42 53 55 50 48 46 43 41 39 36 32 30 27 25 21 19 17 14 12 6 3 357 353 350 345 331
111 118 178 200 206 236 210 135 144 141 144 169 145 126 183 246 146 124 108 96 80 73 66 49 44 47 48 47 44 42 39 38 36 33 29 27 24 21 17 14 10 10 8 0 354 345 340 335 326
123 116 163 200 194 225 185 122 134 146 157 143 141 148 190 199 143 112 94 81 74 60 56 49 43 44 40 37 40 39 38 36 34 31 28 25 21 17 15 12 8 7 5 2 355 345 340 337 331
91 91 205 212 196 212 164 127 90 91 118 108 162 177 180 136 128 113 97 71 74 64 44 50 47 37 33 37 38 35 34 31 29 25 24 20 10 5 8 6 6 4 1 0 358 351 344 342 331
101 172 222 211 192 175 158 147 153 113 109 136 95 81 113 131 142 145 152 162 164 160 93 56 55 41 32 32 30 22 26 22 18 12 9 10 7 5 7 3 5 1 357 355 354 351 345 338 315
152 197 212 217 183 151 147 156 155 143 207 206 188 170 149 152 160 167 176 180 184 185 175 149 88 49 43 26 20 15 12 11 8 5 2 2 4 358 3 356 354 352 352 348 343 345 341 326 311
151 221 195 203 144 143 165 163 203 201 220 211 184 164 161 171 181 184 186 189 185 183 200 206 156 61 34 31 12 4 1 357 353 346 349 3 1 355 349 347 338 342 340 333 333 328 324 319 307
178 212 202 199 139 186 175 220 237 242 237 176 147 161 178 186 194 198 192 186 184 191 205 214 200 181 77 29 339 2 336 327 321 329 333 344 348 335 329 326 328 324 321 322 319 318 319 316 306
187 171 265 273 246 234 219 256 241 250 207 176 172 186 194 195 195 190 188 193 198 200 206 210 212 206 186 204 268 283 293 302 318 319 312 315 303 302 310 312 314 310 306 303 302 298 298 299 295
98 67 323 249 210 217 165 274 234 236 169 184 194 199 206 211 203 198 197 196 199 201 202 207 210 199 203 231 254 277 277 293 305 305 307 301 285 280 288 301 305 299 297 298 303 301 296 303 307
71 73 271 267 185 180 164 261 260 193 171 202 211 214 217 221 214 209 202 199 198 195 200 214 207 201 226 239 252 271 282 287 289 293 301 299 294 281 281 292 293 293 299 299 299 301 300 299 301
51 208 234 274 197 166 190 249 273 162 185 217 222 220 217 224 229 219 206 200 197 196 197 209 212 208 227 246 259 274 283 282 283 287 287 291 294 289 277 277 283 293 298 294 294 301 286 291 296
205 209 229 243 251 175 233 258 272 265 227 235 234 227 217 219 226 214 205 204 198 195 197 204 215 219 221 253 311 310 298 285 279 276 278 282 286 285 278 278 282 289 294 291 282 282 282 274 284
161 174 227 253 264 219 249 266 272 264 239 237 234 225 219 225 230 215 206 200 188 191 197 204 210 227 196 227 267 287 286 294 296 285 280 281 282 282 277 283 287 282 279 280 277 272 284 282 289
156 193 247 286 343 252 288 278 270 253 234 224 219 217 217 219 219 214 207 193 191 198 205 213 215 220 222 221 224 225 252 274 277 282 289 282 282 282 283 276 275 273 275 280 276 269 269 278 271
214 204 214 249 334 3 323 297 275 269 239 228 217 216 214 208 211 210 205 205 204 211 210 215 222 227 231 226 243 316 328 311 300 295 291 285 282 279 274 272 269 267 259 266 267 257 252 269 262
226 212 183 198 335 299 18 293 286 279 290 246 224 215 214 212 206 205 203 208 213 217 214 217 222 228 232 214 209 231 265 273 269 275 279 283 276 275 274 271 267 265 261 261 262 259 246 252 260
175 104 118 135 161 301 267 237 280 289 264 249 231 222 220 216 206 206 207 210 215 211 209 217 225 237 239 227 219 232 258 266 278 282 283 284 281 274 272 270 267 266 264 261 261 261 250 244 246
130 82 61 55 76 269 222 194 272 237 220 237 233 224 220 213 212 214 211 204 214 215 214 215 226 252 247 240 237 234 252 271 282 287 288 288 286 281 273 270 266 264 262 260 259 257 251 247 247
123 108 53 353 329 248 183 208 251 248 233 227 237 243 227 208 204 207 208 210 219 222 227 228 231 259 258 253 253 248 251 258 264 274 278 283 286 283 277 275 270 268 264 261 258 257 254 249 247
179 155 164 192 222 268 210 234 255 263 273 262 253 241 214 207 211 214 212 210 214 220 224 229 239 259 259 258 264 263 258 260 266 267 269 271 272 272 274 272 271 270 269 267 261 259 256 253 249
149 186 156 125 116 281 260 276 295 273 285 284 271 214 230 229 226 224 221 217 218 223 228 226 238 260 264 264 270 274 268 268 272 276 273 273 273 277 276 274 273 272 268 265 262 258 258 256 255
145 143 126 141 165 241 280 268 254 270 254 271 259 248 257 261 249 235 224 226 229 231 242 238 238 252 265 267 269 282 280 275 276 281 279 278 278 277 279 277 274 271 269 265 261 259 258 256 258
141 149 143 138 164 173 248 267 230 226 235 235 245 251 252 252 249 238 233 239 245 250 245 251 258 265 274 275 279 285 287 286 286 282 279 279 279 279 277 276 272 271 270 268 264 262 262 259 260
175 173 156 165 205 190 199 267 278 242 259 248 255 262 266 259 256 247 240 243 247 254 263 266 268 269 274 281 286 286 289 292 291 287 283 281 281 279 277 278 273 272 271 268 266 268 267 263 262